Temperature
22 24 26 26 26 25 23 21 21 21 21 21 21 21 21 21 20 20 20 20 19 19 19 19 19 18 18 18 18 17 17 17 17 17 17 16 16 16 16 16 16 16 16 16
23 25 25 26 26 26 25 24 23 22 21 21 21 21 21 21 20 20 20 20 20 19 19 19 19 19 18 18 17 17 17 17 17 17 17 16 16 16 16 16 16 16 16 16
21 23 24 23 24 25 25 24 23 22 21 20 20 20 21 20 20 20 20 20 20 19 19 19 19 19 18 18 17 17 17 17 17 17 16 16 16 16 16 16 15 15 15 15
19 22 22 21 23 25 24 24 23 22 21 21 20 21 21 21 21 21 20 20 20 19 19 19 18 18 18 17 17 17 17 17 16 16 16 16 16 16 15 15 15 15 15 15
17 20 21 22 23 24 23 22 22 21 20 20 20 20 19 20 21 21 21 20 20 19 19 19 18 18 18 17 17 17 17 16 16 16 16 16 16 15 15 15 15 14 14 14
18 20 20 21 23 24 22 20 21 20 20 20 20 18 18 20 20 20 20 20 19 19 19 18 18 18 17 17 16 16 16 16 16 16 16 15 15 15 15 14 14 14 14 13
18 19 19 21 22 23 21 20 20 20 20 20 19 19 19 19 20 20 20 19 19 19 18 18 17 17 17 16 16 16 16 15 15 15 15 15 14 14 14 14 13 13 13 13
17 18 19 20 21 20 19 19 20 20 20 20 19 19 19 19 19 19 19 18 18 18 17 17 17 17 16 16 16 15 15 15 15 14 14 14 14 14 13 13 13 13 12 12
15 16 17 19 19 20 20 19 19 19 20 20 18 18 18 18 18 18 18 17 17 17 17 16 16 16 16 16 15 15 14 14 14 14 14 13 13 13 13 13 13 12 12 11
15 16 17 18 19 20 20 20 20 20 20 19 18 18 18 17 17 17 17 17 16 16 16 16 15 15 15 15 14 14 14 14 14 13 13 13 13 12 12 12 12 12 11 11
14 15 16 17 18 18 19 19 19 19 19 18 18 17 17 17 17 16 16 16 16 15 15 15 15 15 14 14 14 14 14 13 13 13 12 12 12 12 11 11 11 11 11 11
14 14 14 16 17 18 18 18 18 18 17 17 17 17 16 16 16 16 15 15 15 15 15 14 14 14 14 13 13 13 13 13 12 12 12 11 11 11 10 10 10 10 10 10
15 16 16 16 17 18 18 18 18 18 17 17 16 16 16 15 15 15 15 14 14 14 14 14 13 13 13 13 13 13 12 12 12 11 11 11 10 10 9 9 9 9 9 9
16 16 16 16 16 17 17 17 17 17 16 16 16 15 15 15 14 14 14 14 13 13 13 13 12 12 12 12 12 12 12 11 11 11 10 10 10 9 9 9 8 8 8 8
16 16 16 16 16 16 16 16 16 15 15 15 15 14 14 14 14 13 13 12 12 12 12 12 12 11 11 11 11 11 11 10 10 10 10 9 9 9 8 8 8 7 7 7
16 16 16 16 16 15 15 15 15 14 14 14 14 13 13 13 13 12 12 12 12 11 11 11 11 11 11 11 11 10 10 10 9 9 9 9 8 8 8 8 7 7 7 6
15 15 15 15 15 15 15 14 14 14 14 13 13 13 12 12 12 11 11 11 11 10 10 10 10 10 10 10 10 10 9 9 9 9 9 9 8 8 7 7 7 7 6 6
15 15 15 15 15 15 14 14 13 13 13 13 12 12 11 11 11 10 10 10 10 10 10 10 10 9 9 9 9 9 9 9 9 9 8 8 8 7 7 7 6 6 6 6
15 15 15 14 14 14 14 13 13 13 12 12 11 11 11 10 10 10 10 9 9 9 9 9 9 9 9 9 9 9 8 8 8 8 8 8 7 7 7 6 6 6 6 6
13 14 14 14 14 14 13 13 12 12 12 11 11 10 10 9 9 9 9 9 9 9 9 9 9 9 8 8 8 8 8 8 8 8 7 7 7 7 7 6 6 6 6 6
12 12 12 12 12 12 12 12 12 11 11 10 10 10 9 9 9 9 9 9 8 8 8 8 8 8 8 8 8 8 8 8 8 7 7 7 7 7 7 7 6 6 6 6
11 11 11 11 11 11 11 11 11 11 10 10 9 9 9 9 8 8 8 8 8 8 8 8 8 8 8 8 8 8 8 8 8 8 8 7 7 7 7 7 6 6 6 6
11 11 11 11 11 11 10 10 10 10 10 9 9 9 9 9 8 8 8 8 8 8 8 8 8 8 8 8 8 8 8 8 8 8 8 8 7 7 7 7 7 6 6 6
10 10 10 10 10 10 10 9 9 9 9 9 9 9 9 8 8 8 8 8 8 8 8 8 8 8 8 8 8 8 8 8 8 8 8 8 7 7 7 7 7 7 6 6
9 9 9 9 9 9 9 9 9 9 9 8 8 8 8 9 9 8 8 8 8 8 8 8 8 8 8 8 8 8 8 8 8 8 8 8 7 7 7 7 7 7 6 6
9 9 9 9 9 9 9 9 9 8 8 8 8 8 8 8 8 8 8 8 8 8 8 8 8 8 8 8 8 8 8 8 8 8 8 8 7 7 7 7 7 7 7 6
9 8 8 8 8 9 9 9 9 9 8 8 8 8 8 8 8 8 8 8 8 8 8 8 8 8 8 8 8 8 8 8 8 8 8 7 7 7 7 7 7 7 7 6
Wind_Speed
7 7 3 3 4 4 6 9 10 10 11 11 12 13 12 12 12 12 10 9 8 7 7 7 7 6 5 5 6 6 6 5 5 4 4 4 4 4 4 3 4 4 4 4
2 2 1 3 5 6 6 7 7 8 7 8 9 9 11 13 14 13 11 11 10 8 8 8 7 7 6 6 5 6 6 5 4 4 4 4 4 4 4 3 3 4 4 4
2 2 3 4 6 5 4 4 8 9 10 11 10 13 14 13 13 12 11 11 10 8 7 7 6 7 7 6 5 6 5 5 4 5 5 4 4 4 4 4 3 4 4 4
2 2 4 9 5 3 2 1 4 8 12 16 14 11 8 10 12 11 10 11 10 8 6 6 6 6 7 7 6 6 5 5 5 5 5 4 5 4 4 4 4 4 5 5
4 3 4 6 5 1 3 2 1 9 13 13 12 10 5 3 7 9 9 9 9 8 8 6 7 7 8 7 6 6 6 5 4 5 5 5 5 4 4 5 5 5 6 7
4 4 6 7 7 2 7 2 1 9 14 14 10 7 4 4 8 9 9 9 9 8 8 7 6 7 8 7 6 6 5 5 5 5 6 6 5 5 5 6 7 7 8 7
4 4 6 6 6 3 5 6 3 8 11 10 5 7 8 9 9 9 9 9 9 9 7 5 6 8 7 7 6 5 6 6 5 5 5 6 6 5 6 8 8 8 9 7
4 4 6 6 4 3 6 4 7 9 10 10 11 11 11 10 10 10 9 9 9 9 7 5 6 8 8 6 5 6 7 7 6 6 5 5 7 7 7 9 9 8 8 8
4 5 5 2 3 4 7 10 8 9 12 14 13 10 10 9 8 9 9 8 8 8 8 6 5 7 8 5 6 8 8 8 7 7 7 6 7 8 7 7 7 7 7 7
2 2 2 4 6 6 7 9 10 12 13 13 13 11 10 9 7 8 8 7 7 8 8 6 5 6 6 6 7 9 9 8 7 7 7 7 6 6 6 6 6 6 7 7
1 1 5 7 6 7 9 11 12 11 11 10 12 12 11 9 8 8 7 6 7 8 8 7 6 6 6 7 8 9 9 8 7 7 8 8 8 7 5 4 4 6 6 7
3 3 3 1 2 6 10 10 12 12 10 9 11 11 10 8 6 7 7 7 8 8 8 7 7 6 5 6 8 10 8 7 6 6 7 7 8 9 14 11 12 11 9 8
4 2 3 3 4 6 8 9 10 11 11 10 9 10 11 9 6 7 8 8 8 8 8 7 7 6 5 6 7 8 9 7 6 6 7 7 7 8 9 10 14 14 12 12
4 4 4 3 4 7 9 10 11 11 10 10 10 10 10 9 8 8 7 7 7 8 8 8 8 7 5 6 8 8 8 8 8 6 7 7 7 7 8 9 8 7 8 11
2 4 5 5 7 8 9 10 11 10 9 9 9 10 10 9 8 7 6 7 8 8 7 7 8 7 6 7 8 8 7 6 6 7 7 7 7 7 8 8 8 7 6 7
4 5 7 8 9 9 9 10 10 8 8 8 8 8 9 9 9 8 7 7 8 8 7 7 7 6 6 7 8 7 6 10 9 7 7 7 7 7 7 7 7 7 6 6
7 6 6 8 8 8 8 8 9 8 8 8 9 9 10 10 9 8 7 7 8 7 6 7 6 6 6 7 7 6 6 8 11 8 7 7 7 7 7 7 7 6 5 5
6 6 7 9 9 9 8 8 9 9 8 8 9 9 9 9 9 8 8 8 9 8 6 5 6 6 6 6 6 6 6 6 6 7 7 7 8 8 8 7 7 7 5 6
5 6 6 8 8 9 9 9 9 8 8 9 10 9 9 8 8 8 8 8 9 7 5 5 7 7 6 7 7 6 7 7 7 7 7 9 9 7 7 7 7 6 6 5
7 6 7 7 8 8 9 9 9 9 9 10 11 10 9 8 8 8 8 7 5 4 6 6 6 5 5 6 8 6 7 8 8 7 7 7 7 7 7 7 6 6 6 5
6 7 8 8 8 8 8 9 10 10 9 10 11 10 10 8 8 7 7 6 4 5 6 7 5 5 4 5 7 6 6 7 7 7 7 7 7 7 7 6 6 6 6 6
5 7 8 8 9 8 7 8 9 11 10 10 10 10 10 9 8 7 5 5 5 7 5 4 4 5 6 6 5 6 6 6 6 6 6 6 7 7 6 6 6 6 6 6
6 7 8 8 10 10 9 9 9 10 10 10 10 9 9 7 6 6 5 3 5 7 5 3 5 7 6 4 5 6 6 6 6 6 6 6 6 6 6 7 6 7 7 6
8 8 8 9 10 11 11 9 8 8 9 8 7 8 8 7 5 3 5 7 8 8 5 5 7 6 5 4 5 5 5 5 5 5 6 6 6 6 6 6 6 6 6 7
8 9 9 10 9 8 9 9 9 9 8 6 6 5 4 4 5 5 5 6 8 7 4 4 6 5 4 4 4 5 4 4 5 5 5 5 5 5 5 6 6 6 6 6
8 7 7 7 7 6 6 6 6 6 6 6 4 4 4 5 6 6 5 5 6 6 4 3 2 3 3 4 4 4 4 5 5 5 5 5 5 5 5 6 7 6 6 6
7 7 6 6 6 5 5 5 6 5 5 6 5 4 5 5 5 5 5 4 4 3 3 2 2 2 3 3 3 3 3 4 4 4 4 4 5 5 6 7 6 6 7 8
Wind_Direction
199 208 202 228 246 211 186 186 185 205 190 199 189 175 165 154 147 142 144 147 146 142 138 138 140 143 140 139 141 143 141 148 161 163 148 140 141 145 141 149 167 166 157 156
222 235 265 287 277 252 223 198 183 163 188 192 171 153 153 154 151 152 157 157 149 146 147 153 157 154 140 139 138 136 140 145 144 140 137 136 138 141 137 136 137 139 143 145
238 316 33 284 250 240 235 202 170 179 192 163 153 162 164 160 157 160 161 152 147 152 156 158 160 150 146 147 136 133 135 134 128 128 127 128 136 132 139 146 139 131 137 138
146 79 222 246 260 212 181 248 190 164 158 159 156 154 148 152 152 154 156 150 149 154 156 153 144 135 133 131 130 129 124 124 126 128 129 126 119 124 132 128 126 122 118 120
127 169 265 293 305 228 148 347 96 141 142 140 124 94 75 117 136 144 146 146 147 151 146 142 139 136 130 132 133 130 129 129 132 135 130 127 128 126 119 115 109 104 102 103
131 157 215 248 289 296 104 33 283 138 143 143 126 129 175 143 122 119 120 127 131 130 122 128 136 136 134 137 136 136 135 134 126 126 131 130 130 123 115 113 108 102 93 91
161 193 244 265 303 34 125 203 186 140 145 142 135 150 145 130 117 116 116 117 123 121 118 128 133 128 132 134 139 138 128 120 113 111 116 119 115 109 112 111 107 101 95 86
154 180 242 301 15 128 182 153 117 117 121 114 111 113 120 123 121 120 116 114 118 118 114 112 119 126 127 132 135 126 121 116 111 106 106 110 112 108 108 112 110 107 104 94
181 205 251 304 121 133 133 116 109 112 117 118 116 120 122 124 125 121 119 118 117 117 113 105 109 122 127 127 122 118 115 113 108 102 97 103 113 114 112 111 115 116 115 110
55 359 356 52 82 87 99 104 107 112 116 119 121 121 118 118 119 116 112 113 114 114 111 107 104 105 116 119 118 117 116 112 110 108 100 92 96 103 112 118 122 124 125 123
70 336 33 34 52 82 89 95 98 100 107 114 120 118 119 120 118 115 112 109 112 117 118 116 108 103 109 119 119 115 115 114 110 106 107 97 87 78 91 87 126 137 136 136
219 233 149 167 44 94 98 102 107 105 98 101 109 112 110 108 108 110 111 110 110 109 112 113 110 106 108 117 122 122 119 118 118 119 115 111 106 86 64 74 78 87 103 117
197 189 141 134 88 87 100 108 108 110 115 111 104 109 111 111 104 101 102 106 111 112 113 112 108 103 106 115 119 121 126 126 124 124 124 122 120 117 105 76 71 75 86 100
162 120 93 97 101 93 95 96 97 95 96 104 107 108 109 107 104 102 104 109 111 109 108 109 109 105 105 109 113 116 119 122 125 125 125 125 123 122 121 120 111 86 73 89
133 126 138 125 103 100 102 99 97 97 99 99 105 111 113 114 112 108 105 107 106 106 106 107 109 110 113 115 115 118 121 125 124 124 121 120 120 119 118 117 117 115 106 90
147 125 130 126 118 111 107 110 114 117 115 114 113 112 111 111 110 107 106 112 115 115 114 112 110 114 117 119 118 116 120 127 128 127 125 124 124 125 124 124 123 125 127 128
143 148 137 133 128 123 122 127 131 129 125 125 126 124 119 114 112 110 106 103 105 107 110 114 116 116 115 116 117 121 123 130 130 127 130 134 135 133 132 131 131 132 136 138
140 150 149 146 141 134 131 132 130 127 126 125 124 122 123 123 125 123 119 113 107 100 96 105 112 115 117 118 118 121 120 122 126 126 127 130 130 130 130 131 133 132 129 126
101 105 113 124 133 135 136 137 134 128 125 127 128 127 124 121 123 123 122 120 119 119 117 115 117 111 113 123 125 122 125 125 123 121 123 130 130 130 133 135 136 137 138 137
83 87 96 107 117 126 131 133 132 128 129 131 129 125 122 123 123 121 119 114 118 131 135 128 121 115 120 125 124 125 129 131 131 132 133 136 138 140 142 144 145 148 149 149
95 100 102 108 109 113 123 130 133 133 132 132 133 133 131 127 124 123 122 117 112 117 124 125 123 124 129 134 129 130 130 131 133 139 143 143 143 145 147 150 152 155 155 155
98 109 110 111 110 108 110 117 123 124 125 127 128 129 128 126 121 113 108 123 133 128 124 125 126 130 135 131 131 137 139 140 140 142 146 147 148 151 154 155 157 160 162 165
96 105 108 109 110 107 102 106 115 121 124 128 131 134 132 130 132 132 129 134 134 130 126 130 133 129 124 123 134 139 141 143 145 148 152 153 156 159 161 163 165 164 166 171
96 98 101 104 105 106 105 105 106 110 114 116 121 127 129 127 122 122 131 136 137 131 130 144 143 135 123 121 128 131 137 143 147 152 155 155 157 160 161 162 165 170 172 173
98 99 100 102 102 106 109 110 108 106 106 109 111 114 121 133 140 142 136 138 138 131 131 144 141 130 125 128 129 132 139 148 152 152 152 152 156 158 161 163 167 168 172 176
96 99 98 100 106 109 111 111 112 113 115 114 110 111 113 114 122 127 130 138 139 136 137 142 137 127 127 130 135 138 141 142 141 143 149 153 158 161 165 171 173 175 177 182
88 91 95 94 92 99 106 111 117 120 124 126 123 122 122 120 121 127 130 132 137 140 142 145 145 142 133 130 132 135 141 146 150 151 154 161 167 173 179 179 183 186 186 188
Height
1459 1455 1453 1455 1455 1457 1466 1473 1483 1481 1478 1474 1472 1472 1474 1478 1482 1486 1488 1492 1494 1497 1499 1501 1502 1504 1505 1506 1507 1508 1509 1509 1510 1511 1512 1513 1514 1515 1516 1517 1519 1521 1522 1523
1455 1450 1450 1453 1451 1452 1454 1458 1464 1468 1472 1465 1466 1469 1473 1477 1480 1483 1487 1491 1494 1497 1499 1500 1501 1503 1504 1505 1507 1508 1508 1509 1510 1510 1511 1512 1513 1514 1515 1516 1517 1518 1520 1521
1467 1456 1455 1464 1453 1451 1451 1450 1455 1465 1464 1462 1466 1468 1471 1474 1478 1482 1485 1488 1492 1496 1498 1500 1501 1502 1503 1505 1506 1507 1508 1508 1509 1510 1510 1511 1512 1513 1514 1515 1516 1517 1518 1519
1469 1465 1476 1463 1443 1443 1446 1447 1446 1448 1452 1456 1460 1464 1469 1472 1475 1480 1484 1487 1491 1495 1497 1499 1501 1502 1503 1504 1505 1506 1507 1508 1509 1510 1510 1511 1512 1512 1513 1514 1515 1516 1517 1518
1475 1476 1470 1454 1443 1442 1448 1453 1447 1449 1453 1458 1461 1466 1472 1474 1476 1480 1484 1487 1491 1494 1496 1498 1500 1501 1502 1503 1504 1505 1506 1507 1508 1509 1510 1510 1511 1512 1512 1513 1514 1515 1516 1517
1472 1474 1477 1459 1442 1438 1445 1460 1450 1449 1453 1458 1461 1472 1475 1475 1477 1480 1484 1487 1490 1493 1495 1497 1498 1500 1501 1502 1503 1504 1505 1506 1507 1508 1509 1509 1510 1511 1512 1512 1513 1515 1516 1517
1469 1471 1465 1449 1441 1440 1460 1462 1451 1451 1453 1456 1460 1465 1470 1474 1477 1480 1483 1486 1489 1491 1494 1496 1497 1498 1499 1501 1502 1503 1504 1505 1506 1507 1507 1508 1509 1510 1511 1511 1513 1514 1515 1517
1469 1472 1469 1446 1443 1448 1452 1448 1449 1451 1454 1457 1461 1466 1470 1474 1477 1480 1482 1486 1488 1490 1492 1494 1496 1497 1498 1499 1500 1501 1502 1503 1504 1505 1506 1507 1508 1509 1510 1511 1512 1514 1515 1517
1463 1464 1453 1446 1445 1445 1445 1447 1450 1452 1456 1459 1463 1469 1472 1475 1478 1481 1483 1485 1487 1489 1491 1493 1495 1496 1497 1498 1499 1500 1501 1502 1503 1504 1505 1506 1508 1508 1510 1511 1512 1513 1515 1516
1459 1456 1452 1449 1447 1449 1449 1450 1452 1454 1458 1462 1465 1469 1472 1476 1479 1481 1483 1485 1487 1489 1491 1492 1494 1495 1496 1497 1498 1499 1500 1501 1502 1503 1504 1505 1507 1508 1509 1510 1512 1513 1515 1516
1459 1457 1454 1453 1453 1453 1454 1455 1457 1459 1462 1465 1467 1469 1472 1476 1479 1482 1484 1485 1487 1489 1490 1491 1493 1494 1495 1496 1497 1498 1498 1500 1501 1502 1503 1505 1506 1507 1509 1511 1512 1514 1515 1517
1461 1458 1457 1458 1456 1456 1457 1458 1460 1462 1465 1467 1468 1471 1474 1477 1479 1482 1484 1485 1487 1488 1489 1491 1492 1493 1494 1495 1496 1497 1498 1499 1500 1501 1503 1504 1505 1507 1510 1511 1513 1515 1516 1518
1456 1456 1456 1457 1458 1458 1460 1461 1462 1464 1466 1468 1470 1473 1476 1478 1481 1482 1483 1485 1486 1488 1489 1490 1492 1493 1494 1495 1496 1496 1497 1498 1499 1501 1502 1504 1506 1507 1509 1512 1514 1516 1518 1519
1454 1455 1456 1457 1459 1460 1462 1462 1464 1466 1468 1470 1472 1474 1477 1479 1481 1482 1483 1485 1487 1488 1489 1490 1491 1492 1494 1494 1495 1496 1497 1499 1500 1501 1503 1504 1506 1508 1509 1511 1513 1516 1519 1521
1455 1455 1456 1457 1459 1461 1463 1464 1466 1469 1471 1472 1474 1476 1477 1479 1481 1482 1484 1486 1487 1488 1489 1490 1491 1492 1493 1494 1495 1497 1498 1499 1500 1502 1504 1505 1507 1509 1511 1513 1515 1518 1520 1523
1455 1455 1457 1458 1460 1462 1464 1466 1468 1470 1472 1473 1475 1477 1478 1479 1481 1483 1484 1486 1487 1487 1489 1490 1491 1492 1493 1495 1496 1497 1499 1500 1502 1503 1505 1506 1508 1510 1512 1515 1517 1520 1522 1524
1453 1455 1457 1458 1460 1462 1464 1467 1469 1471 1473 1474 1476 1477 1479 1480 1482 1483 1485 1486 1487 1488 1490 1491 1492 1493 1494 1496 1497 1498 1500 1501 1503 1505 1506 1508 1510 1512 1514 1517 1519 1522 1524 1527
1452 1453 1455 1457 1459 1462 1465 1467 1469 1471 1473 1474 1476 1477 1478 1480 1481 1483 1485 1486 1488 1490 1491 1492 1493 1494 1496 1497 1498 1500 1501 1503 1504 1506 1508 1510 1512 1514 1516 1519 1522 1524 1527 1530
1451 1453 1454 1457 1459 1462 1464 1467 1469 1471 1473 1474 1476 1477 1479 1480 1482 1484 1485 1487 1488 1490 1492 1493 1495 1496 1497 1499 1500 1502 1503 1505 1507 1508 1511 1513 1515 1517 1520 1522 1525 1527 1530 1532
1451 1453 1455 1457 1459 1461 1464 1466 1468 1470 1472 1474 1476 1477 1479 1481 1483 1485 1487 1488 1490 1491 1493 1495 1497 1498 1500 1501 1503 1504 1506 1508 1509 1511 1514 1516 1518 1520 1523 1525 1527 1530 1532 1534
1452 1453 1455 1457 1459 1461 1464 1466 1468 1470 1472 1474 1476 1478 1480 1482 1485 1487 1488 1490 1492 1494 1496 1497 1499 1501 1502 1504 1506 1507 1509 1510 1512 1514 1516 1518 1521 1523 1525 1527 1530 1532 1534 1536
1453 1454 1456 1458 1459 1462 1464 1466 1468 1470 1472 1475 1477 1480 1482 1484 1486 1489 1491 1492 1494 1497 1498 1500 1502 1503 1505 1507 1508 1510 1512 1513 1515 1517 1519 1521 1523 1525 1527 1529 1531 1533 1535 1537
1454 1455 1457 1459 1460 1462 1465 1467 1470 1472 1474 1477 1479 1481 1483 1486 1488 1490 1492 1495 1497 1499 1501 1503 1505 1506 1508 1509 1511 1513 1514 1516 1518 1520 1521 1523 1525 1527 1529 1531 1532 1534 1536 1538
1455 1457 1459 1461 1463 1465 1467 1470 1472 1475 1477 1480 1482 1484 1486 1488 1491 1493 1495 1497 1500 1502 1504 1506 1508 1510 1511 1512 1514 1515 1517 1519 1520 1522 1523 1525 1526 1528 1530 1531 1533 1535 1536 1538
1458 1460 1462 1464 1466 1468 1470 1473 1475 1478 1480 1483 1485 1487 1489 1491 1493 1495 1498 1500 1503 1505 1507 1509 1511 1512 1514 1515 1516 1518 1519 1520 1522 1523 1524 1526 1527 1529 1530 1532 1533 1535 1536 1537
1463 1464 1466 1468 1470 1472 1474 1476 1479 1481 1483 1486 1488 1491 1493 1495 1497 1499 1501 1503 1505 1507 1509 1511 1512 1514 1515 1517 1518 1519 1520 1521 1522 1524 1525 1526 1528 1529 1530 1532 1533 1534 1535 1536
1467 1469 1471 1473 1475 1477 1479 1480 1482 1485 1487 1489 1491 1494 1496 1497 1499 1501 1503 1505 1507 1509 1511 1512 1514 1515 1517 1518 1519 1520 1521 1522 1523 1524 1525 1526 1527 1528 1530 1531 1532 1533 1534 1535